DW7214 Weather Reports


time (UTC)temp
F
wind
direction
speed
knots
gust
knots
rain 1hr
in
rain 24hr
in
rain mn
in
humidity
%
barometer
mb
20260504201513 69 65 2.6 5.2 0.00 0.00 0.00 67 1013.7
20260504200032 67 138 0.9 5.2 0.00 0.00 0.00 68 1013.8
20260504194522 67 70 1.7 4.3 0.00 0.00 0.00 68 1013.9
20260504193008 66 46 1.7 6.1 0.00 0.00 0.00 70 1014.0
20260504191520 65 65 0.9 5.2 0.00 0.00 0.00 72 1014.3
20260504190016 64 28 2.6 5.2 0.00 0.00 0.00 71 1014.3
20260504184518 63 89 0.9 6.1 0.00 0.00 0.00 74 1014.4
20260504183037 63 144 1.7 4.3 0.00 0.00 0.00 72 1014.6
20260504181513 62 44 0.9 5.2 0.00 0.00 0.00 76 1014.6
20260504180017 61 76 0.0 3.5 0.00 0.00 0.00 77 1014.5
20260504174522 60 144 0.9 3.5 0.00 0.00 0.00 78 1014.4
20260504173026 59 137 2.6 5.2 0.00 0.00 0.00 78 1014.6
20260504171508 59 67 0.9 4.3 0.00 0.00 0.00 81 1014.5
20260504081526 57 46 0.9 3.5 0.00 0.00 0.00 81 1009.6
20260504050024 64 244 0.0 1.7 0.00 0.00 0.00 68 1008.5
20260504044535 66 172 0.0 1.7 0.00 0.00 0.00 62 1008.5
20260504043023 68 225 0.0 1.7 0.00 0.00 0.00 60 1008.1
20260504041525 71 321 0.9 1.7 0.00 0.00 0.00 54 1007.8
20260504040028 72 263 0.9 3.5 0.00 0.00 0.00 48 1007.6
20260504034534 73 292 1.7 4.3 0.00 0.00 0.00 47 1007.5
20260504033020 74 240 1.7 3.5 0.00 0.00 0.00 47 1007.4
20260504031522 75 242 2.6 4.3 0.00 0.00 0.00 46 1007.3
20260504030039 77 231 1.7 3.5 0.00 0.00 0.00 48 1007.2
20260504024528 80 228 0.9 1.7 0.00 0.00 0.00 50 1007.2
20260504023027 84 198 0.0 1.7 0.00 0.00 0.00 42 1007.2
20260504021522 86 192 0.0 1.7 0.00 0.00 0.00 37 1007.1
20260504020024 88 194 0.0 1.7 0.00 0.00 0.00 36 1007.2
20260504014536 89 223 0.0 1.7 0.00 0.00 0.00 33 1007.3
20260504013032 89 285 0.9 2.6 0.00 0.00 0.00 28 1007.3
20260504011526 89 297 0.9 2.6 0.00 0.00 0.00 28 1007.4
20260504010023 89 5 0.9 4.3 0.00 0.00 0.00 25 1007.5
20260504004531 89 330 1.7 5.2 0.00 0.00 0.00 26 1007.7
20260504003033 89 294 1.7 4.3 0.00 0.00 0.00 26 1007.9
20260504001528 89 302 1.7 7.0 0.00 0.00 0.00 30 1007.9
20260504000024 89 286 2.6 7.0 0.00 0.00 0.00 28 1007.8
20260503234537 89 277 2.6 6.1 0.00 0.00 0.00 28 1007.9
20260503233026 89 319 0.9 7.0 0.00 0.00 0.00 28 1008.0
20260503231533 89 287 2.6 7.0 0.00 0.00 0.00 28 1008.2
20260503230026 89 282 2.6 6.1 0.00 0.00 0.00 29 1008.4
20260503224526 89 312 1.7 5.2 0.00 0.00 0.00 29 1008.7
20260503223009 89 315 1.7 7.0 0.00 0.00 0.00 28 1009.0
20260503221515 88 313 1.7 7.0 0.00 0.00 0.00 33 1009.2
20260503220020 87 241 1.7 6.1 0.00 0.00 0.00 33 1009.5
20260503214526 87 9 1.7 6.1 0.00 0.00 0.00 36 1009.8
20260503213024 86 306 2.6 6.1 0.00 0.00 0.00 35 1009.9
20260503211512 86 350 2.6 7.0 0.00 0.00 0.00 36 1010.0
20260503210025 86 235 1.7 5.2 0.00 0.00 0.00 35 1010.1
20260503204533 85 332 1.7 6.1 0.00 0.00 0.00 37 1010.3
20260503203025 85 311 2.6 7.0 0.00 0.00 0.00 37 1010.4